Back to catalog

COSMOS 970 DEB

AliveLEO
NORAD 64974·DEBRIS·🇷🇺 Russia

Launched Dec 21, 1977 from Baikonur Cosmodrome

Loading…

Next Passes (next 24 hours)

TLE

AgingSource: Space-Track

Epoch: Sep 11, 2026, 03:07 UTC

1 64974U 77121CK  26254.13032162  .00000279  00000-0  62084-3 0  9996
2 64974  65.9413 151.1012 0082473 146.7443   1.8299 13.41275216626100

Track COSMOS 970 DEB in real time with AllMySat

Download on the App Store